• In Latvia
  • List of Countries
  • For 7 days
  • Water Temperature
  • Satellite Maps
  • Weather Map
  • Weather Widgets
  • user-avatar
    Login

    Hourly Weather Plavinas

    Today, 26 April, Thursday

    Time Temperature Precipitation Wind Pressure Humidity
    00:00 +8°C° 0.4 mm 3 mps 740 mmHg 94%
    01:00 +8°C° 0.4 mm 3 mps 740 mmHg 93%
    02:00 +6°C° 0.4 mm 4 mps 740 mmHg 93%
    03:00 +5°C° 0.1 mm 4 mps 740 mmHg 92%
    04:00 +4°C° 0.1 mm 4 mps 740 mmHg 92%
    05:00 +4°C° 0.1 mm 3 mps 741 mmHg 92%
    06:00 +4°C° 0 mm 4 mps 741 mmHg 90%
    07:00 +5°C° 0 mm 4 mps 742 mmHg 87%
    08:00 +5°C° 0 mm 4 mps 743 mmHg 85%
    09:00 +7°C° 0.2 mm 5 mps 743 mmHg 79%
    10:00 +8°C° 0.2 mm 5 mps 744 mmHg 72%
    11:00 +10°C° 0.2 mm 6 mps 744 mmHg 65%
    12:00 +10°C° 0.4 mm 6 mps 744 mmHg 63%
    13:00 +10°C° 0.4 mm 6 mps 744 mmHg 62%
    14:00 +11°C° 0.4 mm 6 mps 745 mmHg 60%
    15:00 +10°C° 0.4 mm 5 mps 745 mmHg 63%
    16:00 +10°C° 0.4 mm 5 mps 745 mmHg 66%
    17:00 +10°C° 0.4 mm 4 mps 745 mmHg 70%
    18:00 +8°C° 0.2 mm 4 mps 745 mmHg 76%
    19:00 +8°C° 0.2 mm 3 mps 746 mmHg 82%
    20:00 +6°C° 0.2 mm 2 mps 746 mmHg 88%
    21:00 +5°C° 0.1 mm 3 mps 746 mmHg 88%
    22:00 +5°C° 0.1 mm 3 mps 747 mmHg 89%
    23:00 +5°C° 0.1 mm 3 mps 747 mmHg 89%

    Tomorrow, 27 April, Friday

    Time Temperature Precipitation Wind Pressure Humidity
    00:00 +4°C° 0 mm 3 mps 747 mmHg 91%
    01:00 +3°C° 0 mm 3 mps 747 mmHg 93%
    02:00 +3°C° 0 mm 3 mps 747 mmHg 95%
    03:00 +3°C° 0 mm 3 mps 747 mmHg 96%
    04:00 +2°C° 0 mm 3 mps 747 mmHg 96%
    05:00 +2°C° 0 mm 3 mps 748 mmHg 96%
    06:00 +3°C° 0 mm 3 mps 748 mmHg 94%
    07:00 +4°C° 0 mm 3 mps 748 mmHg 91%
    08:00 +5°C° 0 mm 3 mps 748 mmHg 89%
    09:00 +6°C° 0.1 mm 4 mps 748 mmHg 85%
    10:00 +7°C° 0.1 mm 4 mps 749 mmHg 82%
    11:00 +8°C° 0.1 mm 4 mps 749 mmHg 78%
    12:00 +8°C° 0.7 mm 4 mps 749 mmHg 76%
    13:00 +10°C° 0.7 mm 4 mps 749 mmHg 73%
    14:00 +11°C° 0.7 mm 4 mps 749 mmHg 70%
    15:00 +10°C° 0.5 mm 4 mps 750 mmHg 71%
    16:00 +10°C° 0.5 mm 4 mps 750 mmHg 71%
    17:00 +10°C° 0.5 mm 4 mps 750 mmHg 71%
    18:00 +9°C° 0.1 mm 3 mps 750 mmHg 77%
    19:00 +7°C° 0.1 mm 3 mps 751 mmHg 83%
    20:00 +6°C° 0.1 mm 2 mps 751 mmHg 88%
    21:00 +5°C° 0 mm 2 mps 752 mmHg 90%
    22:00 +4°C° 0 mm 2 mps 752 mmHg 92%
    23:00 +4°C° 0 mm 2 mps 753 mmHg 94%

    Day after tomorrow, 28 April, Saturday

    Time Temperature Precipitation Wind Pressure Humidity
    00:00 +3°C° 0 mm 2 mps 753 mmHg 95%
    01:00 +3°C° 0 mm 2 mps 753 mmHg 95%
    02:00 +3°C° 0 mm 2 mps 753 mmHg 96%
    03:00 +3°C° 0 mm 2 mps 753 mmHg 95%
    04:00 +3°C° 0 mm 2 mps 753 mmHg 95%
    05:00 +2°C° 0 mm 2 mps 753 mmHg 95%
    06:00 +4°C° 0 mm 2 mps 753 mmHg 89%
    07:00 +6°C° 0 mm 2 mps 753 mmHg 84%
    08:00 +7°C° 0 mm 2 mps 753 mmHg 78%
    09:00 +9°C° 0.1 mm 3 mps 753 mmHg 73%
    10:00 +11°C° 0.1 mm 3 mps 753 mmHg 67%
    11:00 +12°C° 0.1 mm 3 mps 753 mmHg 62%
    12:00 +13°C° 0.1 mm 3 mps 752 mmHg 60%
    13:00 +14°C° 0.1 mm 3 mps 752 mmHg 58%
    14:00 +16°C° 0.1 mm 3 mps 751 mmHg 55%
    15:00 +16°C° 0.2 mm 3 mps 751 mmHg 60%
    16:00 +16°C° 0.2 mm 3 mps 750 mmHg 64%
    17:00 +16°C° 0.2 mm 3 mps 749 mmHg 68%
    18:00 +14°C° 0.8 mm 3 mps 749 mmHg 75%
    19:00 +12°C° 0.8 mm 3 mps 748 mmHg 83%
    20:00 +11°C° 0.8 mm 3 mps 748 mmHg 90%
    21:00 +11°C° 0.3 mm 3 mps 748 mmHg 92%
    22:00 +11°C° 0.3 mm 3 mps 748 mmHg 93%
    23:00 +10°C° 0.3 mm 3 mps 748 mmHg 94%

    29 April, Sunday

    Time Temperature Precipitation Wind Pressure Humidity
    00:00 +10°C° 0 mm 3 mps 748 mmHg 94%
    01:00 +9°C° 0 mm 3 mps 748 mmHg 94%
    02:00 +8°C° 0 mm 3 mps 749 mmHg 94%
    03:00 +8°C° 0 mm 3 mps 749 mmHg 95%
    04:00 +6°C° 0 mm 4 mps 749 mmHg 95%
    05:00 +6°C° 0 mm 4 mps 750 mmHg 95%
    06:00 +6°C° 0.1 mm 4 mps 750 mmHg 94%
    07:00 +6°C° 0.1 mm 4 mps 751 mmHg 92%
    08:00 +6°C° 0.1 mm 4 mps 751 mmHg 91%
    09:00 +7°C° 0 mm 4 mps 752 mmHg 88%
    10:00 +9°C° 0 mm 3 mps 752 mmHg 86%
    11:00 +9°C° 0 mm 3 mps 753 mmHg 83%
    12:00 +10°C° 0 mm 3 mps 753 mmHg 79%
    13:00 +11°C° 0 mm 3 mps 753 mmHg 75%
    14:00 +13°C° 0 mm 2 mps 753 mmHg 70%
    15:00 +14°C° 0 mm 2 mps 753 mmHg 68%
    16:00 +14°C° 0 mm 2 mps 753 mmHg 65%
    17:00 +15°C° 0 mm 2 mps 753 mmHg 62%
    18:00 +13°C° 0 mm 1 mps 754 mmHg 69%
    19:00 +11°C° 0 mm 1 mps 754 mmHg 76%
    20:00 +9°C° 0 mm 0 mps 754 mmHg 83%
    21:00 +8°C° 0 mm 0 mps 754 mmHg 85%
    22:00 +8°C° 0 mm 1 mps 754 mmHg 87%
    23:00 +8°C° 0 mm 1 mps 754 mmHg 89%

    30 April, Monday

    Time Temperature Precipitation Wind Pressure Humidity
    00:00 +7°C° 0 mm 1 mps 754 mmHg 90%
    01:00 +7°C° 0 mm 1 mps 754 mmHg 91%
    02:00 +7°C° 0 mm 1 mps 754 mmHg 93%
    03:00 +7°C° 0 mm 1 mps 754 mmHg 93%
    04:00 +6°C° 0 mm 2 mps 754 mmHg 94%
    05:00 +6°C° 0 mm 2 mps 754 mmHg 95%
    06:00 +7°C° 0 mm 2 mps 754 mmHg 89%
    07:00 +9°C° 0 mm 3 mps 754 mmHg 84%
    08:00 +11°C° 0 mm 3 mps 754 mmHg 78%
    09:00 +13°C° 0 mm 3 mps 753 mmHg 71%
    10:00 +15°C° 0 mm 4 mps 753 mmHg 65%
    11:00 +17°C° 0 mm 4 mps 753 mmHg 58%
    12:00 +18°C° 0 mm 4 mps 752 mmHg 59%
    13:00 +18°C° 0 mm 4 mps 752 mmHg 60%
    14:00 +19°C° 0 mm 4 mps 751 mmHg 61%
    15:00 +18°C° 0.2 mm 4 mps 751 mmHg 65%
    16:00 +18°C° 0.2 mm 4 mps 751 mmHg 68%
    17:00 +18°C° 0.2 mm 4 mps 750 mmHg 72%
    18:00 +17°C° 0 mm 4 mps 750 mmHg 76%
    19:00 +15°C° 0 mm 4 mps 750 mmHg 80%
    20:00 +14°C° 0 mm 3 mps 750 mmHg 84%
    21:00 +14°C° 0 mm 3 mps 749 mmHg 86%
    22:00 +13°C° 0 mm 3 mps 749 mmHg 89%
    23:00 +13°C° 0 mm 3 mps 748 mmHg 92%

    1 May, Tuesday

    Time Temperature Precipitation Wind Pressure Humidity
    00:00 +13°C° 0.4 mm 3 mps 748 mmHg 93%
    01:00 +13°C° 0.4 mm 3 mps 748 mmHg 94%
    02:00 +14°C° 0.4 mm 2 mps 748 mmHg 95%
    03:00 +14°C° 0 mm 2 mps 748 mmHg 95%
    04:00 +14°C° 0 mm 2 mps 748 mmHg 95%
    05:00 +13°C° 0 mm 3 mps 748 mmHg 96%
    06:00 +13°C° 0.4 mm 3 mps 749 mmHg 94%
    07:00 +13°C° 0.4 mm 3 mps 749 mmHg 93%
    08:00 +13°C° 0.4 mm 4 mps 750 mmHg 91%
    09:00 +14°C° 0 mm 4 mps 750 mmHg 85%
    10:00 +14°C° 0 mm 4 mps 751 mmHg 79%
    11:00 +15°C° 0 mm 4 mps 752 mmHg 73%
    12:00 +17°C° 0 mm 4 mps 752 mmHg 66%
    13:00 +18°C° 0 mm 4 mps 753 mmHg 59%
    14:00 +18°C° 0 mm 4 mps 753 mmHg 52%
    15:00 +18°C° 0 mm 4 mps 753 mmHg 51%
    16:00 +18°C° 0 mm 3 mps 754 mmHg 49%
    17:00 +18°C° 0 mm 3 mps 754 mmHg 48%
    18:00 +16°C° 0 mm 2 mps 754 mmHg 55%
    19:00 +14°C° 0 mm 2 mps 755 mmHg 62%
    20:00 +12°C° 0 mm 1 mps 755 mmHg 69%
    21:00 +11°C° 0 mm 1 mps 756 mmHg 71%
    22:00 +10°C° 0 mm 1 mps 756 mmHg 73%
    23:00 +8°C° 0 mm 0 mps 756 mmHg 74%
    Show more